Location: Godzisko
(49.9648°N, 19.4576°E)
Time: 00:42:53
(UTC+00:00)

SL-19 R/B - Pass Details

Date: 20 April 2021
Orbit: 796 x 1009 km, 99.4° (Epoch: 07 May)

Event Time Altitude Azimuth Distance (km) Brightness Sun altitude
Rises 00:38:48 0° 16° (NNE) 3,735 8.8 -23.3°
Reaches altitude 10° 00:41:20 10° 17° (NNE) 2,766 7.9 -23.1°
Maximum altitude 00:47:35 83° 107° (ESE) 977 4.4 -22.6°
Enters shadow 00:49:47 42° 190° (S) 1,326 4.7 -22.4°
